Location: Wheeling
(40.0640°N, 80.7210°W)
Time: 20:51:36
(UTC-05:00)

ITAMSAT 1 - Pass Details

Date: 31 October 2021
Orbit: 784 x 796 km, 98.9° (Epoch: 01 December)

Event Time Altitude Azimuth Distance (km) Brightness Sun altitude
Rises 19:00:46 0° 140° (SE) 3,263 10.6 -8.2°
Reaches altitude 10° 19:03:15 10° 131° (SE) 2,340 9.8 -8.6°
Maximum altitude 19:07:51 34° 68° (ENE) 1,282 8.3 -9.5°
Drops below altitude 10° 19:12:30 10° 5° (N) 2,359 10.0 -10.4°
Sets 19:15:00 0° 356° (N) 3,294 10.8 -10.8°
